Temperature
12 12 11 10 10 10 10 10 9 9 10 10 10 10 10 10 10 9 8 8 7 6 5 5 5 4 3 2 2 1 -0 -1 -2 -3 -3 -3 -3 -3
12 11 11 11 11 10 11 11 10 10 9 9 9 9 10 10 10 9 8 7 7 6 5 4 3 2 2 1 0 -1 -3 -4 -4 -3 -3 -3 -3 -3
12 12 11 11 11 11 11 11 10 10 9 9 10 9 9 9 9 8 8 7 6 5 4 3 2 2 1 -0 -1 -4 -5 -5 -5 -4 -4 -4 -4 -4
13 12 11 11 11 11 11 11 11 11 10 10 10 9 9 9 8 8 7 6 5 4 3 2 2 2 0 -1 -3 -4 -4 -5 -6 -5 -5 -5 -4 -5
12 12 12 11 11 11 11 11 11 11 11 10 9 9 9 8 8 7 6 5 4 3 2 2 2 1 -1 -2 -3 -4 -4 -5 -5 -6 -5 -5 -5 -5
12 12 12 12 12 11 11 11 11 10 10 9 9 9 9 8 7 6 5 4 3 2 2 1 0 -0 -2 -2 -3 -3 -4 -5 -6 -6 -6 -6 -6 -6
12 11 11 12 12 11 11 11 11 10 10 10 9 9 8 7 7 6 6 3 2 2 2 1 -1 -2 -3 -3 -4 -4 -4 -5 -6 -6 -6 -6 -6 -6
12 11 10 11 12 11 11 11 11 11 11 11 10 9 9 7 7 6 5 3 1 2 1 0 -2 -2 -3 -3 -4 -3 -4 -5 -6 -7 -7 -7 -7 -7
15 12 9 9 11 12 11 11 11 11 10 10 10 10 8 7 7 6 4 2 1 -0 -0 -1 -3 -3 -4 -4 -3 -3 -4 -5 -6 -6 -7 -7 -8 -8
12 11 10 10 9 11 11 11 11 10 10 10 10 9 7 7 6 5 4 2 0 -1 -1 -2 -3 -5 -5 -5 -4 -4 -5 -5 -6 -6 -6 -7 -7 -8
10 11 12 10 10 11 11 11 11 9 9 9 9 7 7 6 6 5 3 1 -1 -3 -3 -3 -4 -5 -4 -4 -4 -4 -5 -5 -5 -6 -6 -6 -7 -7
9 9 10 9 9 9 11 11 10 9 9 8 8 6 6 6 5 4 2 1 -1 -3 -4 -5 -6 -6 -5 -5 -4 -5 -6 -6 -5 -5 -6 -6 -7 -6
7 8 8 8 8 9 9 10 10 9 8 7 6 5 6 5 4 3 1 0 -1 -3 -5 -5 -6 -7 -7 -7 -5 -5 -6 -6 -6 -6 -6 -6 -6 -6
6 7 7 8 8 8 8 9 9 9 8 6 5 5 5 4 3 1 0 -1 -2 -4 -5 -5 -6 -7 -7 -8 -7 -6 -7 -6 -6 -6 -6 -7 -7 -7
6 6 7 7 8 8 8 9 9 8 7 5 4 4 3 3 1 0 -1 -2 -4 -4 -5 -6 -7 -7 -7 -7 -8 -7 -7 -6 -6 -7 -8 -8 -8 -8
7 6 6 7 7 7 6 6 8 7 5 4 4 3 1 2 0 -0 -2 -3 -5 -5 -5 -6 -7 -7 -7 -7 -7 -6 -7 -7 -7 -8 -9 -8 -8 -8
4 4 5 5 4 4 4 5 6 5 4 4 3 2 1 1 -0 -1 -3 -4 -6 -6 -7 -7 -6 -6 -6 -6 -5 -5 -6 -7 -8 -9 -9 -8 -7 -8
4 4 3 4 4 4 5 4 4 4 3 3 2 1 1 -0 -1 -2 -4 -5 -6 -6 -6 -7 -6 -5 -5 -5 -5 -6 -7 -8 -8 -8 -8 -8 -7 -6
3 3 3 3 4 4 4 4 4 3 2 2 1 1 -0 -1 -2 -3 -4 -5 -6 -6 -6 -6 -6 -7 -7 -8 -7 -6 -7 -7 -7 -7 -7 -8 -7 -6
2 2 2 3 3 3 3 3 3 1 0 0 0 -1 -1 -2 -3 -4 -5 -5 -6 -6 -6 -6 -6 -7 -7 -8 -7 -6 -6 -6 -7 -7 -7 -7 -6 -6
0 1 1 1 2 1 1 0 0 -0 -0 -1 -1 -1 -1 -2 -3 -4 -5 -5 -6 -6 -6 -6 -6 -6 -6 -7 -7 -6 -5 -6 -7 -7 -7 -8 -8 -7
-1 -1 -1 -0 -0 0 -0 -1 -1 -1 -1 -1 -1 -1 -2 -2 -3 -4 -5 -5 -6 -6 -6 -6 -6 -6 -6 -7 -7 -6 -5 -5 -5 -6 -6 -7 -8 -8
-2 -1 -1 -1 -1 -1 -1 -1 -1 -1 -1 -0 -0 -1 -2 -3 -4 -4 -5 -5 -5 -5 -6 -6 -6 -6 -6 -6 -6 -6 -6 -6 -5 -4 -5 -6 -6 -7
Wind_Speed
16 17 15 13 14 14 13 13 13 14 15 13 9 7 5 5 7 6 6 5 4 5 2 1 4 8 11 14 16 17 18 19 19 20 20 19 18 18
13 15 15 13 12 13 13 12 14 14 13 12 11 7 5 5 6 5 5 6 5 3 1 3 6 8 10 13 15 16 16 16 17 17 17 16 16 18
16 17 18 16 13 13 12 12 11 11 13 12 11 6 6 6 5 4 5 4 3 2 1 3 6 8 10 11 12 14 15 16 16 17 17 18 18 19
20 19 19 16 17 15 12 13 12 13 13 14 11 7 7 5 6 6 5 4 4 2 2 4 6 8 10 10 12 14 15 16 17 17 18 19 20 21
21 21 21 20 19 16 14 13 11 10 11 12 9 6 3 3 5 6 7 5 4 3 4 4 5 9 11 12 13 13 14 15 17 17 17 18 19 20
22 22 21 21 22 18 15 14 12 11 10 10 7 4 3 3 6 8 7 6 6 4 3 5 7 11 13 12 12 12 13 14 15 15 17 18 19 21
21 21 21 23 23 19 15 14 14 12 11 9 6 4 5 5 7 7 6 5 5 4 4 5 6 8 8 10 11 11 13 14 14 15 18 19 19 21
20 20 21 21 22 22 22 18 16 15 15 11 8 8 8 7 8 7 6 4 4 3 3 6 6 8 8 7 10 13 14 14 14 17 19 20 21 23
19 17 15 15 19 21 21 17 15 15 12 11 11 10 9 10 11 9 7 6 4 3 3 6 6 8 9 8 13 14 15 14 15 17 18 21 23 23
20 17 17 17 17 20 16 15 13 9 7 8 9 9 8 11 11 9 8 6 4 4 3 3 5 8 9 9 10 12 13 15 17 18 19 20 20 19
20 19 18 19 20 22 17 14 12 7 5 11 14 15 17 17 14 10 9 7 5 5 4 4 5 9 9 7 6 9 14 16 17 18 19 19 17 16
16 17 18 21 18 24 19 16 15 13 12 14 16 16 15 14 13 8 9 7 4 4 5 3 5 5 5 4 6 9 10 12 14 17 17 16 15 11
15 13 11 14 19 26 21 17 16 17 16 14 12 10 11 9 8 7 7 6 5 3 4 2 3 4 4 5 8 9 9 10 11 11 12 14 14 13
17 12 9 14 21 25 18 16 24 21 13 12 10 9 9 9 8 7 6 4 3 3 2 2 3 4 5 7 7 8 10 11 10 9 9 12 14 14
16 14 13 19 21 18 18 26 25 16 14 12 10 8 8 9 9 7 6 4 4 5 5 5 6 6 6 7 10 11 11 9 9 9 10 11 11 10
12 9 9 13 14 15 19 18 13 13 13 12 11 10 8 9 8 7 5 5 4 5 6 6 7 8 9 12 12 12 11 8 9 11 12 12 12 11
5 2 5 9 11 11 11 10 11 13 12 12 12 11 10 9 8 6 5 5 4 3 3 4 5 8 11 11 9 10 10 10 11 12 13 13 12 11
7 6 8 11 13 14 13 12 11 12 12 13 11 11 10 9 8 7 5 5 4 3 3 3 5 7 6 7 11 9 9 11 12 13 13 13 14 12
8 8 9 10 10 12 12 13 12 12 12 12 12 11 9 9 9 7 6 5 3 3 3 3 4 5 6 6 4 9 10 12 13 13 12 13 15 14
3 5 6 7 8 9 10 11 12 13 11 11 11 10 10 9 8 7 6 4 3 2 3 3 3 4 4 6 6 7 12 13 12 13 13 13 15 19
2 1 2 4 5 6 7 9 11 12 12 11 10 10 10 9 8 7 6 5 2 2 3 3 3 4 4 5 7 9 11 11 13 13 14 13 12 11
3 2 2 4 6 8 9 10 11 12 12 11 10 10 9 9 8 8 6 4 3 2 3 4 3 3 3 5 10 12 13 13 13 15 16 14 9 6
6 4 4 5 7 9 11 12 12 12 12 11 10 10 10 9 8 7 6 4 2 0 2 4 4 4 5 7 10 12 14 14 13 13 10 11 15 20
Wind_Direction
223 221 222 225 226 225 221 218 227 247 252 248 244 224 189 168 163 180 205 168 162 141 138 313 323 318 314 312 311 310 307 305 302 300 296 296 303 308
222 225 226 225 224 222 218 219 222 234 250 251 246 225 164 155 147 175 164 147 118 105 39 336 324 310 308 305 305 304 302 303 303 300 295 297 300 303
223 223 226 223 223 220 217 217 219 220 238 248 246 217 183 180 163 168 170 210 177 103 331 291 294 293 301 300 302 302 301 300 299 300 302 300 297 298
226 222 224 221 224 222 219 219 218 215 224 239 233 205 201 188 188 191 207 217 237 184 255 282 279 290 288 284 294 294 298 298 295 296 297 299 301 300
231 225 225 219 221 220 219 222 220 213 214 226 224 194 184 174 202 212 214 228 245 236 256 248 267 280 279 278 287 290 295 293 290 290 294 300 301 299
234 231 228 222 222 215 215 219 213 208 206 219 211 175 173 178 210 225 219 223 247 252 252 255 264 272 272 271 279 285 287 285 286 291 298 301 300 299
241 236 232 225 223 214 207 212 208 207 199 197 190 180 185 187 204 207 214 218 242 243 263 261 260 264 258 265 270 277 284 282 284 292 297 299 299 299
242 240 235 230 224 211 207 208 209 205 198 189 185 199 196 198 189 181 184 209 235 190 258 274 252 258 265 269 283 284 278 275 286 294 298 297 298 297
237 237 238 231 226 222 216 211 213 216 207 188 185 192 179 183 172 174 183 207 224 183 251 275 244 256 271 274 275 268 264 271 285 294 295 296 296 295
248 237 233 233 224 218 205 196 196 187 193 182 176 162 154 157 154 158 168 181 202 207 219 265 261 272 285 280 266 256 266 280 287 289 292 294 293 293
253 241 229 233 220 203 193 171 149 134 115 116 114 123 132 136 138 137 149 171 204 207 201 259 287 301 294 276 250 256 280 287 288 288 289 289 288 292
259 247 235 233 209 189 186 170 166 159 139 120 117 121 126 134 141 151 162 168 187 214 183 231 298 324 308 282 283 293 293 293 292 289 288 282 285 288
274 261 243 225 198 186 187 182 164 145 138 129 129 133 135 143 147 153 155 161 183 218 163 214 291 302 291 300 305 300 299 305 301 294 281 276 277 278
280 270 235 200 190 185 181 158 141 136 134 132 140 145 151 153 153 155 149 167 214 236 184 181 254 277 290 298 294 304 312 308 300 294 285 290 286 281
280 265 212 190 183 174 162 148 140 137 140 142 145 142 154 144 145 145 144 173 230 244 238 227 241 258 268 273 284 298 307 305 296 291 294 295 293 288
287 266 205 168 152 147 146 142 134 139 145 143 135 136 150 141 149 152 163 186 221 214 208 227 240 252 263 270 278 287 294 293 297 300 299 294 288 280
262 204 154 140 137 145 142 139 138 139 140 134 131 143 157 148 149 158 177 189 219 222 229 230 256 275 270 270 274 276 280 286 295 299 299 293 288 280
211 186 178 167 162 163 158 150 151 147 143 135 139 151 154 149 149 165 180 200 215 223 258 293 315 313 296 252 230 259 281 295 301 300 294 289 288 285
205 186 192 185 176 172 166 160 157 149 143 137 144 148 146 144 156 170 178 193 207 231 269 293 303 319 322 321 267 233 272 294 299 295 291 290 289 290
229 181 198 190 182 176 168 158 147 142 139 140 142 145 144 149 163 168 173 182 195 240 271 269 281 307 309 315 309 284 271 270 284 293 297 296 293 291
312 229 184 166 167 163 153 147 143 141 142 142 143 143 146 154 160 160 160 157 183 248 286 309 333 313 298 290 282 289 288 273 272 282 289 294 296 294
251 199 166 156 154 150 147 146 145 146 145 143 144 143 150 156 154 153 154 158 186 254 302 315 315 315 290 282 294 302 307 312 306 290 276 264 262 276
266 212 189 173 160 157 154 154 154 152 150 147 146 147 151 149 146 146 144 151 166 273 341 336 335 320 293 287 296 304 309 315 322 320 305 290 276 272
Height
1422 1423 1422 1423 1424 1425 1425 1425 1426 1425 1424 1426 1427 1426 1423 1423 1422 1421 1420 1417 1415 1411 1407 1403 1399 1397 1395 1393 1389 1383 1379 1375 1372 1369 1366 1364 1362 1359
1411 1414 1414 1414 1414 1414 1415 1416 1416 1416 1415 1417 1418 1418 1416 1416 1416 1415 1414 1412 1408 1404 1401 1398 1395 1392 1388 1384 1380 1375 1372 1369 1367 1364 1361 1359 1357 1355
1401 1402 1403 1405 1405 1405 1405 1406 1406 1407 1405 1406 1409 1409 1408 1409 1409 1408 1407 1404 1399 1396 1391 1389 1387 1383 1379 1375 1372 1369 1366 1363 1361 1359 1357 1355 1353 1350
1390 1390 1391 1394 1395 1396 1395 1395 1396 1397 1398 1397 1399 1398 1400 1400 1401 1400 1398 1395 1392 1388 1384 1381 1379 1376 1371 1367 1364 1363 1360 1357 1355 1354 1352 1350 1349 1346
1380 1379 1378 1380 1382 1384 1385 1386 1386 1387 1388 1388 1389 1388 1390 1391 1391 1391 1389 1388 1386 1382 1378 1374 1371 1369 1365 1362 1359 1357 1354 1352 1350 1349 1348 1346 1343 1340
1367 1367 1368 1368 1369 1371 1373 1375 1377 1378 1378 1379 1380 1379 1381 1382 1383 1384 1380 1380 1380 1376 1371 1368 1364 1362 1359 1357 1354 1351 1349 1347 1345 1345 1343 1341 1338 1335
1355 1354 1355 1357 1359 1362 1362 1364 1366 1367 1367 1368 1370 1372 1373 1374 1375 1375 1373 1374 1374 1371 1364 1361 1358 1356 1354 1351 1349 1346 1343 1341 1340 1339 1338 1336 1332 1330
1343 1342 1343 1346 1349 1351 1352 1351 1355 1357 1356 1356 1358 1363 1365 1367 1368 1367 1368 1369 1368 1363 1360 1357 1353 1351 1348 1345 1343 1340 1338 1336 1334 1333 1331 1329 1327 1324
1329 1330 1332 1333 1337 1340 1342 1342 1345 1349 1348 1349 1350 1353 1356 1359 1359 1360 1361 1362 1362 1357 1354 1351 1349 1346 1343 1339 1336 1334 1333 1331 1328 1325 1323 1321 1319 1316
1320 1318 1319 1321 1323 1326 1329 1330 1332 1336 1337 1339 1342 1345 1348 1350 1350 1352 1354 1356 1355 1352 1349 1347 1346 1342 1338 1333 1331 1330 1328 1325 1322 1320 1317 1314 1311 1308
1311 1309 1305 1307 1309 1312 1316 1316 1318 1323 1327 1328 1333 1337 1341 1343 1343 1344 1346 1349 1349 1347 1345 1343 1341 1337 1332 1328 1327 1326 1323 1320 1317 1315 1312 1309 1305 1302
1303 1299 1294 1296 1299 1302 1306 1305 1307 1310 1315 1318 1323 1328 1333 1336 1337 1339 1341 1342 1343 1343 1340 1339 1337 1333 1328 1325 1324 1322 1318 1315 1312 1309 1306 1303 1300 1296
1295 1289 1286 1287 1291 1293 1297 1298 1299 1302 1307 1314 1319 1322 1325 1329 1333 1335 1336 1337 1337 1337 1336 1335 1332 1330 1327 1323 1319 1317 1315 1311 1307 1303 1300 1298 1294 1291
1287 1282 1280 1281 1283 1286 1289 1291 1294 1299 1303 1308 1314 1317 1319 1323 1328 1331 1332 1334 1333 1333 1331 1330 1329 1327 1324 1320 1316 1314 1311 1307 1303 1299 1296 1293 1289 1285
1279 1275 1274 1274 1275 1276 1279 1283 1286 1293 1298 1303 1307 1312 1316 1318 1324 1326 1327 1329 1329 1329 1328 1326 1325 1323 1320 1317 1313 1309 1305 1301 1298 1295 1292 1288 1283 1279
1272 1269 1268 1267 1267 1268 1270 1274 1279 1286 1294 1298 1302 1310 1315 1315 1320 1322 1323 1325 1326 1324 1323 1323 1321 1319 1315 1313 1309 1305 1302 1298 1295 1291 1287 1282 1277 1274
1265 1264 1261 1259 1258 1262 1264 1268 1274 1280 1289 1293 1298 1305 1310 1312 1316 1318 1320 1321 1322 1322 1321 1320 1318 1315 1313 1309 1305 1302 1298 1295 1291 1287 1282 1276 1271 1268
1260 1259 1257 1253 1252 1255 1258 1263 1269 1275 1282 1287 1294 1301 1306 1309 1312 1315 1317 1318 1318 1318 1318 1318 1316 1312 1310 1306 1304 1299 1295 1290 1285 1281 1276 1270 1263 1261
1253 1253 1253 1251 1250 1251 1253 1258 1263 1270 1277 1283 1291 1298 1303 1305 1309 1312 1313 1315 1315 1315 1316 1315 1312 1309 1307 1303 1299 1295 1290 1284 1279 1273 1269 1265 1258 1253
1252 1250 1251 1250 1250 1250 1251 1254 1258 1265 1273 1281 1289 1295 1298 1302 1306 1308 1310 1312 1313 1313 1313 1312 1310 1307 1304 1302 1296 1291 1287 1280 1274 1268 1263 1257 1252 1246
1252 1251 1250 1249 1249 1249 1250 1253 1257 1263 1271 1280 1287 1291 1295 1299 1303 1305 1307 1309 1311 1312 1311 1310 1309 1306 1302 1298 1293 1286 1282 1277 1270 1263 1257 1250 1243 1238
1251 1250 1249 1247 1247 1247 1250 1255 1261 1266 1273 1280 1285 1289 1293 1297 1300 1303 1305 1308 1310 1310 1310 1309 1307 1304 1300 1296 1290 1283 1278 1273 1267 1260 1253 1248 1242 1235
1248 1246 1244 1244 1243 1244 1248 1254 1260 1266 1273 1278 1283 1287 1292 1296 1298 1301 1304 1306 1308 1309 1309 1308 1305 1302 1299 1294 1289 1282 1275 1268 1261 1255 1251 1245 1238 1232